SL-12 R/B(2), 23656

Orbit data source: Space-Track

SL-12 R/B(2), 23656 is space debris in GEO originally from a launch on Wed, 30 Aug 1995 UTC launched from the Tyuratam Missile And Space Complex (TTMTR). Debris objects in space refer to the collection of defunct objects orbiting the Earth. Examples of debris include non-operational satellites, rocket bodies, and fragments generated from explosions, collisions, or faulty payload assembly.

Loading next visibility...
Identifier
23656, 1995-045D
Orbit
GEO
Country
Flag of CISCIS
Related business
Manufacturer
RKKE
Mission
Spacecraft
Bus & Motor
BLOK DM, Unknown motor
Mass
2,440 kg wet, 2,440 kg dry
Launch date (UTC)
1995-08-30 (30 years ago)
Launch vehicle
Unknown
Launch site
Tyuratam Missile And Space Complex (TTMTR)
Object type
Payload
Rocket body
Debris
Shape & HBR
Cyl, 3.1 m
Radar Cross Section
23.597 m², Large (>1 m²)

Expand to show TLE details & history
Last TLE update: 23 hours ago

TLE from 23 hours ago
0 SL-12 R/B(2)
1 23656U 95045D   25340.18907216 -.00000176  00000-0  00000-0 0  9998
2 23656  14.4415 354.4853 0016391  51.5369   5.6529  1.00129619110732
Epoch: 2025-12-06T04:32Z
TLE epoch observation values (Epoch: 2025-12-06T04:32:15.834Z)
Latitude
12.12315°
Longitude
-92.44649°
Altitude
35,756.312 km
Speed
3.078 km/s
True Right ascension
03h 23m 21s
True Declination
12° 06' 40"
Sunlit
Object was in daylight at epoch
Visualization orbit readout
Latitude
Unknown
Longitude
Unknown
Altitude
Unknown
Speed
Unknown
Apparent Right ascension
Unknown
Apparent Declination
Unknown
Sunlit
N/A
Visualization observer readout
Local Sidereal Time
01:24:12
Azimuth
Unknown
Elevation
Unknown
Doppler factor
Unknown
Orbital elements
Apogee altitude
35,896.648 km
Perigee altitude
35,758.289 km
Semi-major axis
42,205.605 km
Eccentricity
0.00164
Inclination
14.4415°
RAAN
354.4853°
Arg. of periapsis
51.5369°
True anomaly
5.67144°
Mean anomaly
5.6529°
Eccentric anomaly
5.66217°
Mean motion
0.25032 °/min
Orbital period
1,438.18 mins
BSTAR
0
Loading maneuver chart data...
Computing Atmospheric mass density...
Loading historical data...
Loading historical data...
Loading historical data...
Loading historical data...
Loading historical data...
Loading historical data...
Loading historical data...

Documentation

Showing up to 5 results
|